Regional Weather Roundup
Issued by NWS Green Bay, WI

Home | Current Version | Previous Version | Graphics & Text | Print | Product List | Glossary Off
Versions: 1 2 3 4 5 6 7 8 9 10 11 12 13 14 15 16 17 18 19 20 21 22 23 24 25 26 27 28 29 30 31 32 33 34 35 36 37 38 39 40 41 42 43 44 45 46 47 48 49 50

000
ASUS43 KGRB 042211
RWRGRB

NORTH-CENTRAL AND NORTHEAST WISCONSIN REGIONAL WEATHER ROUNDUP
NATIONAL WEATHER SERVICE GREEN BAY WI
500 PM CDT FRI SEP 04 2015

WIZ005-009-010>012-018-019-042300-
NORTH CENTRAL WISCONSIN

CITY           SKY/WX    TMP DP  RH WIND       PRES   REMARKS
IRONWOOD       SUNNY     84  64  51 SE9       29.96F
MANITOWISH WTR MOSUNNY   81  66  58 SE6       30.02F
ARBOR VITAE    SUNNY     82  66  57 SE7       30.03F
EAGLE RIVER    MOSUNNY   81  60  49 SE5       30.05R
LAND O LAKES   MOSUNNY   82  62  50 S3        30.05S
RHINELANDER    SUNNY     82  63  52 SE8       30.05S
PHILLIPS       SUNNY     82  66  59 SE7       30.01S
ANTIGO         MOSUNNY   78  66  66 E12       30.05S
TOMAHAWK       SUNNY     81  65  58 SE3       30.03F
MERRILL        SUNNY     81  67  63 S5        30.03S
$$

WIZ013-073-042300-
NORTHEAST WISCONSIN

CITY           SKY/WX    TMP DP  RH WIND       PRES   REMARKS
IRON MOUNTAIN  PTSUNNY   81  65  58 VRB6      30.04R
MARINETTE      SUNNY     73  63  68 E9        30.04S
OCONTO         SUNNY     74  69  82 E6        30.03F
$$

WIZ017-030-035>037-045-042300-
CENTRAL WISCONSIN

CITY           SKY/WX    TMP DP  RH WIND       PRES   REMARKS
MEDFORD        SUNNY     78  67  69 S8        30.02S
WAUSAU         MOSUNNY   81  66  60 E8        30.01F
MOSINEE        MOSUNNY   79  66  65 SE8       30.03F
MARSHFIELD     SUNNY     81  63  54 SE8       30.02S
WISC RAPIDS    MOSUNNY   81  64  56 SE8       30.02F
STEVENS POINT  MOSUNNY   77  66  68 E10       30.03S
WAUPACA        MOSUNNY   81  68  65 SE6       30.02F
SHAWANO        NOT AVBL
CLINTONVILLE   PTSUNNY   79  64  61 SE5       30.02S
WAUTOMA        SUNNY     79  68  69 E8        30.02F
$$

WIZ038-039-048-051-042300-
FOX VALLEY

CITY           SKY/WX    TMP DP  RH WIND       PRES   REMARKS
NWS GREEN BAY  SUNNY     76  67  73 NE9       30.03F
APPLETON       PTSUNNY   75  64  69 VRB3      30.02S
OSHKOSH        SUNNY     75  65  70 VRB3      30.03S
FOND DU LAC    PTSUNNY   75  67  76 NE6       30.03F
$$

WIZ022-050-052-042300-
EAST CENTRAL WISCONSIN

CITY           SKY/WX    TMP DP  RH WIND       PRES   REMARKS
EPHRAIM        MOCLDY    73  65  77 E6        30.05S
STURGEON BAY   PTSUNNY   72  64  78 E8        30.07S
MANITOWOC      SUNNY     70  66  87 MISG      30.04S
SHEBOYGAN      CLOUDY    71  66  84 E8        30.03S
$$

LMZ563-521-522-541>543-042300-
LAKESHORE

STATION/POSITION TIME  TEMP    WIND        PRES    VSBY  WAVE
                       AIR SEA DIR/SP/G                  HT/PER
                 (UTC) (F)     (DEG/KT/KT) (MB)    (MI)  (FT/S)
SHEBOYGAN LKSHOR 2200   61      30/  2/  2 1017.3R
KEWAUNEE LKSHORE 2100   66      90/  2/  3 1016.7F
ALGOMA MARINA    2144           50/  9/ 12   N/A
NORTHPORT PIER   2100   69      70/  8/ 10 1017.6S
N MID LAKE BUOY  2150   68 67   20/  8/  8 1017.2S         1/ 4
S GREEN BAY BUOY 2200   68 68   50/ 10/ 12 1018.3
SISTER BAY LKSHO 2111   79     110/ 10/ 12   N/A
CHAMBERS ISLAND  2100   70      30/  8/ 10 1017.3F
MENOMINEE LKSHOR 2100   68      30/  8/ 10 1016.2F
$$



USA.gov is the U.S. government's official web portal to all federal, state and local government web resources and services.